Terug naar catalogus

RASSVET-3 24

ActiefPO
NORAD 100090·PAYLOAD·🇷🇺 Russia

Gelanceerd Jul 19, 2026 vanaf Plesetsk Cosmodrome

Loading…

Volgende Passages (komende 24 uur)

TLE

VersSource: Space-Track

Epoch: Sep 14, 2026, 10:29 UTC

1 A0090U 26165H   26257.43740898 -.00044571  00000-0 -46425-3 0  9991
2 A0090  82.2997 167.9671 0008475 195.3657 164.7345 15.64653548  8921

Volg RASSVET-3 24 in realtime met AllMySat

Download on the App Store